Wetbulb
47.08 44.01 41.61 43.42 44.95 45.00 43.49 41.97 41.74 43.64 46.43 44.91 45.70 46.01 48.02 50.63 50.81 54.05 58.16 59.89 64.47 67.73 70.31 71.90 71.96 71.66 70.71 70.43 70.85 71.67 71.14 71.86 69.89 68.93 69.49 67.45 64.54 63.87 63.83 63.97 63.90 63.69 63.32 63.03
43.81 42.44 45.84 46.11 44.70 42.81 42.85 42.18 42.03 44.14 45.48 44.66 45.25 44.71 47.76 49.31 49.73 51.57 56.15 58.89 61.27 66.07 69.08 70.18 71.77 71.85 70.78 70.94 71.42 71.24 70.62 69.63 69.59 70.06 70.48 69.69 66.24 63.82 63.86 63.90 63.69 63.51 63.24 63.11
43.56 44.70 46.80 43.65 42.83 41.47 42.35 41.64 41.91 41.74 44.75 44.73 44.17 43.65 45.90 49.04 50.27 51.60 52.87 55.49 59.07 61.48 65.53 67.93 70.08 71.52 71.41 70.62 70.73 70.67 70.49 68.97 69.75 70.19 68.05 64.48 63.68 62.72 61.99 62.34 62.12 62.46 62.88 62.67
43.48 46.12 44.18 43.16 42.77 43.68 40.85 43.81 43.55 42.71 41.79 39.04 44.18 37.79 44.61 47.19 47.80 49.90 51.93 53.76 56.35 60.45 61.98 66.66 68.80 70.15 69.60 69.54 70.94 70.97 69.72 68.31 69.42 68.44 67.18 66.46 64.77 61.93 62.44 62.54 62.60 62.02 63.02 62.69
43.93 43.21 42.18 42.11 43.62 44.62 43.02 45.26 43.65 43.57 42.36 40.80 42.38 39.33 43.79 45.47 46.12 48.95 51.29 52.85 55.34 57.98 60.75 63.84 67.79 68.70 69.42 70.07 69.43 69.48 69.29 68.09 69.01 66.07 67.62 66.60 66.49 64.46 63.50 62.71 63.19 63.40 63.38 63.17
44.16 46.86 45.02 45.20 46.02 45.03 45.96 43.88 43.12 42.13 42.10 36.87 41.74 40.41 41.47 44.51 46.87 49.29 51.67 52.80 54.02 56.06 59.29 62.45 67.84 68.55 68.27 69.18 69.00 69.69 68.22 66.85 66.59 66.68 66.95 66.63 66.56 65.06 62.56 62.53 61.63 61.26 61.78 62.48
42.74 43.48 46.37 47.48 45.15 45.71 44.99 43.22 36.65 35.22 35.16 34.81 42.76 39.81 42.64 47.60 48.78 49.44 50.47 51.11 52.01 53.04 56.41 58.50 62.07 66.64 67.69 67.29 68.53 68.72 68.02 65.89 64.44 64.84 65.36 65.46 66.44 65.55 64.61 63.57 62.35 62.18 61.29 61.65
37.15 37.43 42.08 45.69 44.23 43.42 44.08 43.63 37.53 30.62 32.61 36.02 40.10 37.64 43.32 48.53 51.33 52.41 53.11 53.75 54.67 54.83 55.12 55.46 61.13 64.89 67.31 66.96 67.38 66.82 65.37 66.82 64.90 64.16 63.74 64.33 66.22 64.16 64.18 64.53 63.17 61.89 61.95 62.90
36.23 37.06 42.26 44.66 44.70 43.84 42.82 40.08 43.47 39.90 38.98 36.80 39.86 43.17 45.71 50.56 50.20 51.12 51.83 53.26 53.62 54.70 55.77 56.22 55.63 61.62 66.39 67.33 66.96 65.33 63.55 65.91 64.59 64.07 63.47 63.71 64.76 64.73 63.94 64.95 65.58 63.58 65.19 63.30
36.19 32.93 39.34 40.83 44.14 43.69 42.74 42.76 38.86 39.79 32.97 31.47 37.31 39.29 41.97 45.03 46.13 48.32 49.04 49.94 52.22 54.64 56.10 56.96 57.64 57.18 61.65 67.35 67.92 66.18 64.67 64.20 64.43 64.30 64.62 64.64 64.37 64.75 64.89 64.81 64.40 64.33 64.40 63.58
35.67 34.57 35.65 38.61 36.07 35.80 39.25 40.00 38.84 39.37 38.90 34.85 33.58 38.08 45.82 44.83 46.17 46.18 48.11 49.80 50.77 52.76 55.24 57.26 57.54 57.80 57.32 62.43 67.30 66.45 64.40 63.62 64.64 63.63 62.25 62.25 62.83 63.94 64.19 64.19 64.49 64.00 64.28 63.40
35.24 34.40 30.62 31.84 36.70 38.17 37.12 33.87 34.77 35.30 35.93 37.94 37.87 38.64 43.91 44.41 46.11 47.85 47.11 48.96 50.94 52.23 54.95 57.55 58.40 58.83 58.07 56.94 64.96 66.63 65.16 63.66 64.45 63.98 63.36 62.59 62.41 63.67 64.28 64.79 64.47 64.52 63.69 63.26
34.84 31.53 26.17 28.32 34.36 37.08 33.33 33.41 33.61 34.02 35.62 33.61 34.30 38.37 43.46 43.63 44.58 45.71 46.13 47.75 50.10 52.36 54.50 56.66 58.46 58.83 59.42 57.03 62.06 65.40 64.84 64.17 64.34 62.58 62.57 61.79 61.82 63.01 63.89 64.42 64.58 63.87 63.90 62.72
37.89 32.56 28.28 25.08 27.32 32.02 28.73 31.08 31.64 30.94 28.98 33.12 33.91 36.97 41.25 42.27 40.95 43.17 44.98 47.15 50.03 51.92 54.37 55.24 56.36 58.32 60.23 60.38 61.44 63.42 63.83 64.03 62.99 61.58 62.10 61.40 60.86 62.54 63.76 64.48 63.96 63.99 63.67 63.04
35.57 28.40 29.67 30.68 31.07 31.08 29.88 29.29 30.27 28.45 30.94 27.79 33.38 33.04 37.91 40.65 39.23 40.37 44.97 46.51 49.14 51.52 53.46 54.71 55.24 55.71 57.47 60.51 61.14 61.93 62.78 63.02 62.85 61.57 61.30 61.96 61.99 63.11 62.59 63.69 63.33 63.77 63.55 62.73
33.80 29.22 30.30 27.89 30.97 30.99 28.42 30.87 30.97 30.98 30.97 30.86 31.45 31.40 38.20 39.55 41.48 42.02 44.13 45.43 47.41 49.84 52.59 54.55 55.57 55.75 56.29 57.30 58.84 61.52 61.93 62.06 63.06 62.44 61.98 61.90 62.53 63.36 62.25 63.03 62.80 62.58 61.96 62.20
32.54 30.87 27.79 24.30 28.43 28.34 25.12 30.45 31.59 31.94 33.34 33.25 29.13 34.69 38.37 37.49 39.22 41.81 42.79 43.37 44.69 48.25 51.70 53.44 54.44 55.15 56.23 57.00 58.22 59.00 62.01 62.90 62.34 62.48 62.66 62.49 62.53 62.76 63.10 63.11 62.46 62.29 62.38 62.89
32.57 30.67 29.67 25.37 26.68 17.78 30.57 34.66 34.62 33.32 34.55 35.93 35.41 36.57 38.03 38.63 40.85 41.61 42.81 43.24 44.84 48.38 51.23 52.51 54.45 56.02 56.98 58.44 58.45 59.19 60.93 62.19 62.20 61.94 62.10 62.55 61.82 62.11 62.97 62.67 62.30 62.93 63.04 62.35
34.30 32.07 26.77 23.14 23.41 27.93 30.35 33.29 32.86 31.91 32.84 38.00 36.49 37.89 38.99 40.37 40.63 40.39 43.64 45.13 46.23 48.99 52.35 54.08 55.35 55.78 57.62 56.76 58.38 57.82 58.53 60.38 61.58 61.80 61.86 61.90 62.56 61.92 61.91 61.85 62.34 62.25 61.74 61.28
32.26 33.53 29.17 25.08 20.14 18.51 30.17 35.48 38.61 36.74 27.58 37.83 38.48 38.26 38.49 39.53 33.74 37.48 44.18 45.25 46.09 47.67 49.93 53.74 55.05 55.55 56.74 56.08 56.45 57.02 55.40 55.98 56.27 57.93 59.88 62.34 62.36 61.91 61.92 62.07 60.98 59.91 59.88 58.98
28.20 27.65 24.50 25.05 23.16 27.71 35.09 37.95 38.30 26.07 30.09 39.08 40.28 40.40 40.57 38.38 40.66 43.57 44.83 46.20 49.29 49.83 50.30 54.07 54.75 54.78 55.71 56.70 55.56 55.24 54.63 53.84 54.20 55.01 56.19 56.89 58.93 59.98 60.04 58.71 56.94 56.59 56.28 54.33
28.77 27.18 26.33 26.96 22.96 20.34 38.15 36.81 31.22 37.78 40.65 40.86 41.01 41.03 40.14 41.50 42.59 43.74 45.24 44.92 46.28 48.74 50.36 51.72 52.84 53.87 56.21 57.52 56.74 53.84 52.09 52.69 54.08 52.76 53.31 52.69 52.01 52.92 53.71 53.12 52.75 51.71 51.78 51.31
27.00 31.72 29.09 29.98 29.68 38.24 39.61 39.36 41.83 42.53 40.53 40.81 41.40 42.14 42.28 41.44 42.03 43.08 43.45 44.69 44.85 46.09 47.60 49.71 50.82 52.63 54.43 56.99 56.53 54.76 51.78 53.33 52.00 52.33 50.44 50.40 51.10 52.75 51.21 50.06 49.62 49.81 51.06 51.95
33.22 35.41 30.02 30.34 34.05 35.60 38.07 40.42 40.69 40.86 40.22 41.80 42.36 42.42 42.61 41.26 42.18 42.36 43.34 44.10 44.54 45.32 46.41 48.32 50.35 50.84 52.54 55.38 56.30 55.86 55.60 55.06 52.09 51.13 50.34 49.57 49.22 49.38 49.70 50.00 48.37 48.73 49.11 49.68
33.47 34.48 32.22 32.53 35.25 37.04 38.22 39.27 40.38 41.20 42.07 42.30 42.82 42.82 42.12 42.05 41.91 42.51 42.95 43.91 44.91 45.25 46.57 47.86 49.42 50.79 51.64 52.84 55.24 56.00 55.59 54.92 52.40 51.85 48.98 47.72 46.50 46.88 46.37 45.97 47.45 47.41 47.41 47.19
35.31 33.19 31.23 30.86 36.73 35.82 36.33 39.43 40.77 39.55 40.18 42.08 42.16 41.86 43.09 43.03 42.46 42.98 43.06 44.42 44.94 45.23 46.57 47.67 49.34 50.28 50.81 51.33 51.62 53.42 54.92 54.46 52.78 51.00 49.00 47.56 46.57 47.47 47.31 45.28 44.44 39.51 40.04 39.33
MSLP
1009.09 1009.00 1008.85 1009.06 1009.26 1009.15 1009.00 1008.69 1008.14 1007.90 1007.62 1007.29 1006.56 1006.04 1005.14 1004.44 1003.91 1003.02 1002.15 1002.71 1003.56 1004.02 1004.40 1005.77 1006.72 1007.64 1008.58 1009.26 1009.94 1010.86 1011.73 1012.88 1013.99 1014.52 1014.73 1015.50 1015.96 1016.70 1017.15 1017.30 1017.70 1018.13 1018.26 1018.43
1009.00 1008.18 1008.21 1008.39 1008.86 1009.06 1008.90 1008.44 1008.06 1007.78 1007.46 1007.42 1006.29 1005.70 1005.07 1004.23 1003.83 1002.98 1002.44 1002.13 1002.68 1003.53 1004.26 1004.95 1005.80 1006.71 1007.74 1008.46 1009.16 1010.32 1011.34 1013.01 1013.36 1014.19 1014.73 1015.07 1015.71 1016.57 1016.82 1017.35 1017.81 1018.06 1018.21 1018.40
1007.54 1007.25 1007.29 1008.06 1008.37 1008.60 1008.34 1008.11 1007.97 1007.63 1007.16 1007.09 1006.59 1004.92 1004.54 1003.67 1003.61 1003.04 1002.28 1002.15 1002.44 1002.74 1003.58 1004.48 1005.20 1005.64 1006.65 1007.71 1008.59 1009.91 1010.92 1011.96 1012.98 1013.60 1014.60 1015.28 1015.97 1016.62 1017.00 1017.41 1017.82 1017.96 1018.09 1018.39
1007.60 1007.03 1007.20 1007.38 1007.42 1007.58 1007.20 1007.56 1007.47 1007.35 1007.30 1006.51 1006.48 1004.34 1003.96 1003.53 1003.22 1002.89 1002.25 1001.64 1001.66 1001.98 1002.87 1003.82 1004.44 1005.60 1006.07 1006.49 1007.84 1008.68 1010.00 1011.30 1012.28 1013.17 1013.92 1014.10 1014.24 1015.08 1015.73 1016.61 1017.36 1017.87 1018.05 1018.28
1006.80 1006.88 1007.02 1006.86 1006.41 1006.60 1006.29 1006.79 1007.06 1007.06 1007.02 1006.98 1006.20 1005.52 1003.48 1003.92 1002.93 1002.43 1002.06 1001.71 1001.36 1001.31 1002.41 1002.98 1003.72 1004.56 1005.10 1006.30 1006.93 1008.10 1008.98 1009.79 1010.74 1012.36 1012.90 1013.57 1013.80 1014.38 1015.34 1016.30 1017.29 1017.76 1018.10 1018.19
1007.92 1007.55 1007.07 1006.61 1006.26 1006.41 1006.52 1006.89 1007.27 1007.54 1007.17 1006.37 1005.54 1005.54 1003.33 1003.38 1003.08 1002.49 1002.03 1001.70 1001.67 1001.70 1002.07 1002.68 1002.91 1003.72 1004.78 1005.78 1006.70 1007.46 1008.02 1008.61 1009.70 1010.87 1011.78 1012.46 1012.99 1013.80 1014.65 1015.64 1016.60 1017.36 1017.70 1018.03
1009.15 1008.28 1008.10 1007.83 1006.95 1006.64 1006.58 1006.71 1006.81 1006.86 1006.58 1004.93 1005.57 1005.45 1003.96 1004.00 1004.38 1004.44 1003.90 1003.26 1003.22 1002.68 1002.26 1002.25 1002.71 1003.28 1004.14 1004.55 1005.36 1006.40 1007.32 1007.91 1008.99 1010.03 1010.79 1011.50 1012.36 1013.28 1013.88 1014.80 1015.78 1016.54 1017.05 1017.47
1010.88 1009.78 1009.27 1008.95 1008.53 1008.00 1007.20 1006.61 1006.40 1006.01 1005.65 1005.19 1006.08 1004.61 1004.12 1005.61 1005.74 1005.53 1005.21 1004.81 1004.49 1004.14 1003.69 1002.89 1002.42 1002.70 1003.22 1003.77 1004.32 1005.16 1006.16 1007.22 1008.27 1008.97 1009.72 1010.83 1011.69 1012.66 1013.44 1014.28 1014.91 1015.71 1016.26 1016.90
1012.75 1011.26 1010.68 1010.10 1009.74 1009.53 1008.45 1007.99 1007.98 1006.73 1006.53 1005.94 1005.30 1004.66 1005.45 1005.82 1006.06 1005.99 1005.86 1005.50 1005.16 1004.74 1004.60 1003.98 1003.41 1002.67 1002.80 1003.30 1003.79 1004.34 1005.03 1005.94 1007.25 1007.84 1008.99 1009.79 1010.76 1011.81 1012.65 1013.61 1014.43 1015.20 1015.81 1016.42
1014.92 1013.37 1011.74 1011.22 1010.78 1010.38 1009.77 1009.86 1009.06 1008.30 1006.71 1005.86 1005.31 1005.21 1005.38 1006.60 1007.14 1007.19 1006.84 1006.58 1006.12 1005.44 1004.65 1004.36 1003.86 1003.30 1002.63 1002.53 1003.14 1004.15 1004.73 1005.12 1005.44 1007.02 1008.53 1009.58 1009.63 1010.90 1012.16 1013.14 1014.02 1014.77 1015.42 1016.00
1016.08 1015.39 1013.03 1012.36 1012.77 1011.98 1011.18 1010.68 1010.60 1010.09 1008.70 1006.78 1005.95 1005.97 1007.35 1007.88 1008.31 1008.29 1007.84 1007.46 1006.95 1006.14 1005.12 1004.23 1003.76 1003.52 1002.82 1002.05 1002.10 1003.01 1003.95 1004.80 1005.53 1006.04 1007.47 1008.40 1009.42 1010.64 1011.52 1012.32 1013.44 1014.26 1015.04 1015.89
1016.84 1016.12 1014.58 1014.30 1014.48 1014.02 1013.42 1013.02 1012.58 1011.43 1009.90 1009.11 1007.78 1007.24 1008.62 1008.77 1008.88 1008.89 1008.47 1007.92 1007.26 1006.64 1005.72 1004.70 1003.82 1002.94 1002.17 1001.61 1001.37 1002.02 1003.13 1003.92 1004.68 1006.00 1006.84 1007.75 1008.76 1010.19 1010.80 1011.56 1012.88 1013.65 1014.40 1015.46
1017.18 1016.58 1015.50 1014.92 1015.18 1014.95 1014.74 1014.78 1014.32 1013.53 1012.71 1010.76 1009.55 1008.09 1009.22 1009.29 1009.07 1009.13 1008.80 1008.36 1007.57 1006.70 1005.82 1005.06 1004.49 1003.69 1002.63 1001.48 1001.10 1001.69 1002.72 1003.37 1004.42 1005.64 1006.80 1007.69 1008.69 1009.19 1010.28 1011.26 1012.36 1013.27 1013.88 1014.70
1017.53 1017.13 1016.60 1015.88 1015.88 1016.07 1015.66 1015.56 1015.22 1014.52 1013.39 1011.76 1010.72 1009.52 1009.50 1009.42 1009.48 1009.20 1009.02 1008.68 1007.92 1007.27 1006.61 1005.93 1005.24 1004.50 1003.58 1002.56 1001.89 1001.95 1002.55 1003.40 1004.41 1005.41 1006.51 1007.53 1008.10 1008.62 1009.40 1010.57 1011.66 1012.68 1013.44 1014.02
1017.84 1017.38 1017.30 1016.93 1016.58 1016.31 1015.94 1015.56 1015.28 1014.85 1013.95 1012.96 1011.06 1010.76 1009.88 1009.84 1009.96 1009.76 1009.41 1008.76 1008.22 1007.53 1007.10 1006.60 1005.93 1005.19 1004.46 1003.56 1003.08 1002.91 1002.95 1003.46 1004.26 1004.92 1005.61 1006.14 1007.30 1008.39 1009.44 1010.08 1011.24 1011.87 1012.83 1013.32
1018.49 1017.88 1017.82 1017.41 1016.96 1016.44 1015.60 1014.92 1014.81 1014.53 1014.05 1013.27 1012.68 1010.88 1010.80 1010.14 1009.88 1009.57 1009.30 1008.93 1008.47 1008.12 1007.47 1007.10 1006.66 1006.00 1005.26 1004.41 1003.90 1003.68 1003.79 1003.97 1004.30 1004.70 1005.11 1006.06 1006.72 1007.46 1008.33 1009.34 1010.56 1011.41 1012.14 1012.89
1018.29 1018.06 1018.02 1017.11 1017.10 1016.61 1015.20 1013.56 1013.40 1013.58 1013.27 1012.64 1011.69 1010.18 1010.56 1010.14 1009.80 1009.62 1009.34 1009.23 1008.88 1008.61 1007.98 1007.42 1007.15 1006.70 1006.17 1005.31 1004.51 1004.06 1004.03 1004.30 1004.47 1004.68 1005.01 1005.61 1006.10 1006.69 1007.68 1008.58 1009.80 1010.77 1011.66 1012.37
1017.70 1018.10 1018.19 1017.34 1017.26 1015.85 1013.84 1013.52 1012.84 1012.62 1012.03 1011.46 1011.02 1010.69 1010.42 1009.92 1009.53 1009.40 1009.13 1008.92 1008.86 1008.43 1008.17 1007.60 1007.47 1007.20 1006.70 1006.02 1005.14 1004.50 1004.50 1004.68 1004.71 1004.82 1005.08 1005.54 1006.04 1006.50 1007.28 1008.36 1009.35 1010.19 1011.21 1011.92
1017.48 1017.83 1017.75 1017.43 1016.48 1014.72 1013.55 1013.01 1012.77 1012.23 1010.38 1010.80 1010.62 1009.98 1009.78 1009.84 1009.92 1008.71 1009.00 1008.82 1008.62 1008.29 1008.25 1008.04 1007.72 1007.48 1007.18 1006.83 1006.36 1005.60 1005.24 1005.32 1005.22 1005.17 1005.50 1005.86 1006.15 1006.84 1007.31 1007.99 1009.13 1009.88 1010.95 1011.87
1017.57 1017.84 1017.78 1017.55 1016.44 1014.34 1012.80 1012.31 1012.14 1012.04 1010.06 1010.03 1010.13 1009.95 1009.82 1010.00 1009.48 1008.59 1008.73 1008.80 1008.59 1008.32 1008.07 1008.01 1007.64 1007.32 1007.13 1007.46 1006.86 1006.45 1006.79 1006.29 1006.49 1006.55 1006.43 1006.36 1006.79 1007.30 1007.72 1008.36 1009.22 1010.44 1011.03 1012.24
1017.13 1017.64 1017.42 1016.87 1015.76 1013.52 1012.47 1011.79 1012.19 1011.63 1009.81 1009.88 1009.84 1009.84 1009.89 1009.90 1009.68 1009.56 1009.40 1009.04 1008.80 1008.22 1007.87 1007.82 1007.59 1007.50 1007.48 1007.39 1007.00 1007.13 1008.04 1007.97 1007.55 1007.40 1007.51 1007.70 1007.83 1008.24 1008.51 1009.26 1010.38 1010.96 1011.62 1012.54
1016.17 1016.24 1016.14 1015.85 1014.85 1012.84 1011.29 1011.50 1011.17 1009.60 1009.88 1009.86 1009.81 1009.89 1009.92 1009.90 1009.65 1009.57 1009.41 1009.12 1008.82 1008.40 1008.10 1007.83 1007.66 1007.49 1007.46 1007.29 1006.61 1007.11 1008.24 1008.94 1009.03 1008.20 1008.33 1008.96 1008.96 1009.34 1009.92 1010.34 1011.34 1012.28 1012.49 1012.56
1015.90 1015.07 1014.93 1014.59 1012.56 1011.28 1011.09 1010.62 1010.54 1010.29 1010.09 1009.81 1009.68 1009.68 1009.72 1009.66 1009.37 1009.19 1009.10 1008.97 1008.86 1008.72 1008.38 1008.19 1007.82 1007.42 1007.44 1007.36 1007.20 1007.23 1008.36 1008.95 1008.87 1008.94 1009.37 1009.73 1010.09 1010.40 1011.67 1011.54 1011.82 1012.73 1012.57 1012.67
1015.09 1015.17 1015.12 1014.58 1011.41 1011.04 1010.79 1010.60 1010.51 1010.62 1010.36 1010.28 1009.97 1009.48 1009.37 1009.11 1009.00 1008.76 1008.70 1008.60 1008.46 1008.48 1008.23 1008.05 1007.90 1007.60 1007.50 1007.53 1007.54 1007.81 1008.10 1007.89 1008.13 1009.38 1010.56 1010.92 1011.94 1012.61 1012.49 1011.92 1011.67 1012.33 1013.22 1014.24
1014.88 1015.11 1013.68 1012.48 1011.49 1011.01 1010.33 1010.12 1009.82 1009.69 1009.57 1009.27 1009.03 1008.85 1008.64 1008.54 1008.17 1008.23 1007.98 1007.93 1007.98 1008.08 1008.12 1007.87 1007.81 1007.57 1007.88 1007.85 1007.58 1007.48 1007.86 1008.38 1009.04 1009.10 1009.39 1010.67 1011.58 1011.72 1012.34 1012.35 1013.09 1013.48 1014.56 1014.28
1014.23 1013.89 1013.69 1012.00 1011.58 1011.40 1010.24 1009.79 1009.50 1009.32 1009.15 1008.68 1008.35 1007.96 1007.81 1007.72 1007.56 1007.58 1007.35 1007.24 1007.42 1007.71 1007.82 1007.68 1007.46 1007.40 1007.64 1007.94 1008.11 1007.84 1007.78 1008.31 1009.02 1009.73 1010.30 1011.36 1011.72 1012.71 1013.16 1013.28 1013.77 1013.98 1014.11 1014.76
Wind_Speed
5 7 10 11 14 13 9 7 9 3 5 6 10 10 14 14 13 16 21 20 12 15 16 16 16 16 16 16 18 18 17 15 11 10 11 9 9 7 7 6 9 9 9 9
6 11 14 13 10 11 10 11 10 9 9 7 10 12 14 16 14 15 16 17 20 15 15 17 18 20 20 19 19 19 17 14 13 9 8 7 10 7 7 7 7 8 9 9
12 5 14 10 8 10 11 13 9 11 9 5 9 17 14 14 14 16 19 21 21 22 18 18 21 22 21 21 22 18 20 19 15 13 8 7 7 6 7 8 7 8 9 9
8 8 10 10 12 13 13 13 14 12 8 10 3 9 7 7 10 12 18 19 21 22 16 18 20 18 19 21 18 22 19 16 16 16 13 14 14 12 8 9 8 8 10 10
9 7 10 11 16 16 13 12 15 13 9 5 11 8 6 5 11 14 16 18 19 20 16 18 20 20 24 16 18 18 20 21 20 19 17 13 14 11 10 9 11 9 9 9
5 5 2 7 8 13 4 5 3 2 5 11 13 10 10 9 8 9 10 14 14 15 15 18 18 18 16 18 19 21 23 22 19 20 19 19 17 14 12 12 11 9 8 8
6 2 3 6 6 4 10 7 7 8 9 16 5 9 15 10 8 7 11 13 11 9 12 15 18 20 18 21 24 21 23 22 21 21 20 19 18 16 16 15 12 13 10 9
4 6 6 8 4 4 5 11 10 13 13 14 4 11 6 6 8 8 8 11 10 10 11 12 15 17 20 22 22 22 22 23 22 22 21 18 17 12 12 14 12 12 11 10
3 5 2 4 6 4 3 7 6 9 3 8 9 13 9 10 15 16 16 15 17 16 13 13 12 15 17 18 21 22 22 22 21 22 18 19 17 17 14 15 13 11 10 10
3 7 2 4 4 2 3 4 4 5 12 15 10 10 2 10 13 14 15 16 17 17 17 13 13 12 15 18 18 18 19 23 25 21 15 13 17 17 14 14 14 13 11 13
3 3 1 2 7 6 3 2 1 3 5 10 13 8 3 6 9 11 13 15 17 17 18 16 13 11 13 17 20 19 18 20 20 22 19 20 18 16 15 14 14 14 13 13
4 4 5 3 7 9 4 3 2 5 10 4 8 5 5 6 7 9 13 15 17 17 17 16 16 16 12 15 19 20 18 19 19 17 17 17 16 16 16 14 14 15 15 15
2 2 4 5 5 3 3 3 3 0 0 6 7 5 4 9 10 12 13 15 17 17 19 18 16 14 12 9 14 16 17 18 18 16 15 15 16 17 16 15 14 15 15 15
1 2 5 5 5 4 4 5 3 3 4 3 10 10 11 9 14 17 16 15 15 16 15 16 16 14 12 7 5 12 13 15 14 15 16 15 15 16 17 16 17 16 16 15
2 5 3 8 12 11 13 13 9 10 10 8 10 15 17 17 20 18 13 15 14 14 15 14 14 14 13 10 5 4 10 13 16 18 20 20 18 15 15 17 17 15 15 13
2 5 4 12 14 16 19 18 15 15 15 16 17 24 17 19 15 13 12 12 12 12 12 11 12 13 15 12 8 4 6 10 14 16 17 17 18 20 17 17 16 15 15 14
6 5 4 5 2 4 13 18 19 10 12 13 14 17 11 15 14 13 14 13 16 12 11 9 9 10 12 14 10 5 5 8 11 13 15 17 19 20 19 18 17 16 15 14
10 9 5 5 4 8 4 2 2 15 14 19 19 18 18 18 16 16 16 17 15 13 11 5 6 8 11 11 14 9 2 5 8 10 11 13 16 17 17 17 16 15 13 13
14 10 6 5 9 11 16 11 10 11 22 12 19 20 20 17 15 21 15 14 13 15 11 10 3 5 7 11 11 10 8 5 3 7 10 12 15 15 16 17 15 13 12 11
7 10 7 4 5 6 1 6 7 2 18 6 9 12 14 11 12 13 13 15 15 16 14 12 13 6 5 4 8 13 12 7 6 5 4 6 11 13 13 13 13 10 11 10
5 4 10 10 9 10 9 14 2 12 5 3 4 5 4 6 8 12 13 13 11 13 13 10 10 10 5 6 5 10 11 11 7 7 6 7 8 8 10 11 11 12 12 11
6 5 6 6 8 14 14 6 16 13 5 6 7 7 6 5 8 8 9 11 12 10 9 8 7 6 8 3 8 10 9 5 7 9 12 10 8 7 9 12 10 8 9 8
8 12 5 10 8 8 6 10 7 12 14 15 13 14 15 13 15 14 13 11 10 12 8 8 8 8 5 6 7 9 8 8 7 9 8 9 9 10 6 7 10 7 5 4
7 9 9 9 19 23 24 20 16 18 25 25 24 22 20 21 20 19 16 13 10 10 11 7 6 7 5 8 8 8 9 10 12 9 10 7 5 6 6 5 6 6 4 1
10 9 16 19 23 22 23 22 21 22 22 22 19 18 17 18 19 16 14 14 11 8 9 7 8 4 6 3 7 7 9 7 5 7 8 6 5 6 4 7 5 4 2 2
9 13 6 12 17 15 19 20 19 19 18 18 18 16 15 14 14 13 13 14 11 7 8 9 9 5 4 2 3 5 7 9 9 8 8 7 7 5 5 5 3 8 5 1
Wind_Direction
172 196 212 216 216 234 255 263 263 239 247 283 274 264 274 279 288 273 233 215 205 195 219 206 196 185 177 167 166 178 177 178 171 174 168 165 175 170 171 168 154 152 148 136
164 224 215 222 216 221 234 254 252 278 260 220 275 257 263 266 263 263 257 236 215 216 198 200 194 184 182 179 177 180 176 179 181 176 176 176 168 182 171 163 164 161 149 144
216 203 217 197 198 207 223 232 238 260 293 245 269 270 240 250 232 249 256 253 242 223 209 202 197 190 183 183 186 176 183 180 181 174 156 134 131 143 165 169 168 168 156 155
233 233 201 188 213 207 239 211 234 254 259 273 236 277 249 257 237 235 239 249 239 228 215 206 203 198 190 196 182 183 179 174 180 173 181 183 180 176 182 172 174 170 168 161
221 198 194 217 226 201 247 212 216 240 248 254 231 259 263 237 249 243 242 246 253 241 214 208 200 198 201 186 184 182 179 181 179 181 183 183 185 181 166 167 169 174 170 165
311 313 256 261 250 201 196 181 109 137 219 243 244 245 263 247 251 257 246 251 242 241 230 222 209 203 199 191 190 189 187 186 178 183 183 187 181 172 169 171 173 177 171 168
331 49 2 18 276 174 196 184 226 222 210 246 222 232 258 299 350 348 328 330 346 325 257 236 220 212 202 193 196 192 190 185 181 185 184 185 182 178 173 169 177 174 174 176
341 196 14 350 14 320 244 221 216 232 239 253 161 240 241 41 25 18 10 356 356 352 331 292 248 227 211 201 194 190 188 189 183 185 187 184 180 182 180 179 174 181 180 177
289 241 337 330 339 322 136 225 348 248 278 238 235 240 179 43 30 23 21 14 2 352 342 323 303 258 227 210 200 197 188 190 190 191 182 184 178 181 182 177 175 177 173 164
21 280 72 321 315 78 360 22 203 218 229 234 217 239 254 12 9 4 13 10 360 353 347 336 318 293 258 222 209 202 195 194 189 187 189 194 180 176 173 169 177 176 170 165
352 247 290 264 13 309 295 209 317 284 274 252 244 207 23 8 6 0 1 2 357 350 347 342 331 306 273 248 217 205 200 195 191 181 185 185 179 178 167 169 176 176 166 170
16 294 275 43 118 51 54 63 50 257 208 265 288 179 68 41 14 6 7 0 356 348 347 349 341 327 305 243 227 209 200 196 197 191 181 175 166 174 168 168 177 171 171 177
355 209 283 177 206 193 60 45 18 261 157 239 261 180 64 25 15 7 357 351 353 352 353 356 352 342 332 276 231 214 204 200 196 182 176 171 173 170 170 170 172 178 171 173
218 255 275 300 353 338 278 273 292 273 253 266 248 293 281 320 341 342 347 347 347 354 351 360 1 355 350 359 262 216 203 194 181 174 172 172 177 176 174 172 172 176 178 170
310 282 265 280 289 283 284 271 261 244 250 246 289 285 283 296 309 306 309 338 339 356 350 349 356 1 4 8 14 226 201 186 176 176 181 181 175 173 176 172 179 172 176 171
157 262 267 281 265 267 277 268 249 248 248 261 271 273 282 285 291 282 286 318 334 335 353 343 353 358 360 9 357 299 207 190 188 191 192 182 176 172 176 171 170 167 168 169
236 256 224 260 241 269 270 262 249 233 235 227 248 258 287 284 276 277 290 302 302 310 331 346 347 353 352 350 359 326 253 205 198 198 195 192 183 176 178 169 167 171 173 168
233 226 245 267 225 243 28 276 240 208 238 237 255 262 260 261 272 285 282 282 283 288 288 337 352 4 6 6 0 9 147 210 204 202 198 194 189 179 169 166 170 166 167 167
222 218 226 225 221 289 281 231 224 222 266 262 252 256 261 270 282 271 268 262 266 277 277 270 289 348 16 19 19 28 64 52 200 193 187 186 182 172 168 163 164 156 158 158
166 219 213 180 241 262 16 193 218 231 276 228 252 269 281 275 260 282 293 270 273 279 279 266 259 291 346 22 60 53 33 66 65 41 44 172 175 171 164 154 147 149 144 150
157 165 216 228 250 261 254 246 169 223 276 154 285 301 274 249 267 308 307 305 297 279 277 287 255 250 260 136 101 71 66 39 54 67 67 79 91 118 127 127 135 136 142 137
241 217 215 220 238 261 225 205 222 246 264 237 260 267 260 271 290 303 296 316 319 314 312 308 284 255 222 210 108 101 90 78 60 68 76 58 78 100 107 106 104 113 132 126
248 223 256 226 236 254 205 247 273 281 288 292 274 273 271 267 282 291 297 296 313 313 313 316 292 291 243 217 161 129 148 139 95 91 74 84 71 76 91 106 124 122 95 110
252 250 244 276 250 257 265 255 252 257 270 273 272 269 271 268 265 272 283 276 280 299 302 315 306 294 271 229 219 183 173 152 127 126 130 101 107 146 121 90 62 99 105 220
257 277 251 257 266 272 267 267 272 271 269 267 263 265 259 253 254 261 266 267 268 278 289 295 279 273 302 256 241 218 194 176 142 130 113 100 102 53 58 44 39 57 166 349
263 264 262 279 295 295 279 279 269 259 254 263 268 263 250 248 251 249 253 260 264 262 262 255 255 233 266 290 237 212 199 172 155 145 135 139 130 140 146 137 91 14 8 269